Starlink 30767

operational
NORAD ID: 58126 Int'l Des: 2023-162 Owner: SPXS Country: US Constellation: starlink
LEOCIRCULAR

About Starlink 30767

Description loading...

Live Position

Loading 3D Globe...

Upcoming Passes

Altitude History

Altitude vs Time

uPlot chart will show altitude changes over time

Two-Line Element Set

1 58126U 23162J 25304.20621652 -.00000591 00000-0 -28692-4 0 9992
2 58126 43.0032 116.5545 0001186 266.0530 94.0177 15.02544391112827
Epoch: Oct 31, 2025 • Age: 15 hours

Current Status

Altitude 559.5 km
Velocity 7.58 km/s
Sub-Earth Point -4.87°S, 44.11°W
Launch Date Oct 22, 2023
Age 2 years
Type internet

Technical Details

Classification Payload
Mass 730.00 kg
Dry Mass 700.00 kg
Total Mass 730.00 kg
Length 0.30 m
Diameter 4.10 m
Span 29.00 m
Shape Box + pan
Manufacturer SPXS
Bus Type Starlink V2M
Phase Status In Orbit
Owner/State SPXS/US

Large Constellations

Loading constellations...